DFFDDFOO

Guest
Details From DFFD - OUAGADOUGOU
To DFOO - BOBO DIOULASSO
Flight Number -
Tags generated
Created
Modified
Stats Distance 181 nm / 334 km
Max Altitude 18,800 ft / 5,730 m
Waypoints 3
Social Downloads 0
Likes 0
Share VATSIM

Download

Looking for another format? Having issues loading an existing format? Contact us
Advertisement - Login to hide

Notes

Basic altitude profile: - Ascent Rate: 2500ft/min - Ascent Speed: 250kts - Cruise Altitude: 23000ft - Cruise Speed: 420kts - Descent Rate: 1800ft/min - Descent Speed: 250kts Options: - Use NATs: yes - Use PACOTS: yes - Use low airways: yes - Use high airways: yes

Route

DFFD GEBLU DFOO

ID Type Via Altitude Latitude Longitude Leg Dist Tot Dist Heading (true) Name
O DFFD APT - 0 ft / 0 m 12.35219˚ -1.51161˚ - 0 nm - OUAGADOUGOU
GEBLU FIX - 18,800 ft / 5,730 m 11.77083˚ -2.88361˚ 87 nm 87 nm 247° / 246° -
O DFOO APT - 0 ft / 0 m 11.16006˚ -4.33097˚ 92 nm 180 nm 247° / 247° BOBO DIOULASSO

Altitude Profile

Advertisement - Login to hide

Weather


0- 5 10 15 20 25 30 35+ Temperature / ° C

Clouds and Precipitation
Forecast for 2018-05-21 18:00 UTC. Updated 6 hours ago

Ground ~20,000 ft ~40,000 ft Winds

DFFD

Details ICAO DFFD (OUA)
Name OUAGADOUGOU
Region Burkina Faso
Timezone Africa/Ouagadougou (UTC+0.0)
Stats Elevation 1,037 ft / 316 m (AMSL)
Location 12.352189° -1.511605°
Runways 2
Magnetic Variation 2.247° W

METAR

DFFD 212200Z 22006KT CAVOK 33/21 Q1010 NOSIG

Decode

TAF

TAF DFFD 211700Z 2118/2224 24010KT CAVOK PROB30 TEMPO 2119/2202 TS FEW026 FEW033CB TEMPO 2210/2222 4000 TSRA SCT026 FEW036CB

Decode

Departure Runways

ID Width Length Bearing (true) Bearing (mag) Surface Threshold Offset Overrun Length
04L 148 ft / 45 m 9,968 ft / 3,038 m 33.56° 35.81° Asphalt 0 ft / 0 m 0 ft / 0 m
04R 98 ft / 30 m 6,289 ft / 1,917 m 35.23° 37.48° Gravel 0 ft / 0 m 0 ft / 0 m
22L 98 ft / 30 m 6,289 ft / 1,917 m 215.23° 217.48° Gravel 0 ft / 0 m 0 ft / 0 m
22R 148 ft / 45 m 9,968 ft / 3,038 m 213.57° 215.82° Asphalt 0 ft / 0 m 0 ft / 0 m

DFOO

Details ICAO DFOO (BOY)
Name BOBO DIOULASSO
Region Burkina Faso
Timezone Africa/Ouagadougou (UTC+0.0)
Stats Elevation 1,511 ft / 461 m (AMSL)
Location 11.160058° -4.330970°
Runways 1
Magnetic Variation 3.268° W

METAR

DFOO 212200Z 22006KT CAVOK 28/23 Q1012

Decode

TAF

TAF DFOO 211700Z 2118/2218 20010KT CAVOK PROB30 TEMPO 2120/2204 TS FEW020 FEW033CB

Decode

Destination Runways

ID Width Length Bearing (true) Bearing (mag) Surface Threshold Offset Overrun Length
06 148 ft / 45 m 10,757 ft / 3,279 m 52.66° 55.93° Asphalt 0 ft / 0 m 262 ft / 80 m
24 148 ft / 45 m 10,757 ft / 3,279 m 232.67° 235.94° Asphalt 0 ft / 0 m 262 ft / 80 m

Popular Alternatives